CAPE
348 493 582 541 457 398 313 318 345 313 219 153 134 125 143 180 197 210 145 151 98 0 0 0 0 0 0 0 0 44 0 0
370 403 517 447 382 258 227 224 194 150 93 81 74 60 66 111 108 142 109 44 0 0 0 0 0 0 0 0 0 0 0 0
272 467 429 373 275 227 204 223 137 86 51 35 4 5 3 29 2 65 33 5 0 0 0 0 0 0 0 11 0 0 0 0
275 463 365 308 266 105 89 104 13 3 54 55 65 145 68 34 44 15 10 1 0 0 0 2 0 0 0 0 0 0 0 0
357 343 286 155 153 6 2 20 0 9 210 258 222 255 25 145 154 44 43 0 0 3 0 0 0 0 0 0 0 0 0 0
249 202 131 8 87 22 108 166 227 164 367 400 433 407 319 183 142 116 21 4 2 8 4 0 0 0 0 0 0 0 0 0
62 25 2 58 132 229 269 362 363 391 411 323 392 446 212 136 90 43 39 19 18 0 0 0 0 0 0 0 0 0 0 0
22 0 47 268 190 191 341 358 353 347 347 247 311 318 240 169 99 62 38 22 3 0 0 0 0 0 0 0 0 0 0 0
7 180 270 232 190 211 207 220 195 129 103 197 195 245 126 101 95 67 40 2 0 0 0 0 0 0 0 0 0 0 0 0
32 356 428 258 159 170 174 93 5 3 5 25 85 44 20 28 26 0 0 0 0 0 0 0 0 0 0 0 0 0 0 0
410 466 509 404 234 69 0 0 0 0 0 0 0 0 0 0 0 0 0 0 0 0 0 0 0 0 0 0 0 0 0 0
481 448 431 174 64 38 45 51 36 15 0 0 0 0 0 0 0 0 0 0 0 0 0 0 0 0 0 0 0 0 0 0
427 429 323 19 43 47 52 29 21 4 0 0 0 0 0 0 0 0 0 0 0 0 0 0 0 0 0 0 0 0 0 0
479 390 268 141 40 79 16 0 0 0 0 0 0 0 0 0 0 0 0 0 0 0 0 0 0 0 0 0 0 0 0 0
565 444 314 88 185 52 0 0 0 0 0 0 0 0 0 0 0 0 0 0 0 0 0 0 0 0 0 0 0 0 0 0
578 431 355 106 347 18 0 0 0 0 0 0 0 0 0 0 0 0 0 0 0 0 0 0 0 0 0 0 0 0 0 0
635 507 232 276 379 9 0 0 0 0 0 0 0 0 2 0 0 0 0 0 0 0 0 0 0 0 0 0 0 0 0 0
427 443 439 242 2 0 0 0 0 0 0 2 2 3 0 0 0 0 0 0 0 0 0 0 0 0 0 1 3 0 0 0
473 650 397 1 0 0 0 0 0 1 0 3 13 9 8 6 0 0 0 0 0 0 0 0 0 0 0 12 9 17 16 11
629 77 0 0 0 0 0 0 1 6 17 28 19 15 0 0 0 0 0 0 0 0 0 0 0 0 0 5 6 14 5 25
CIN
-12 -8 -15 -14 -21 -29 -56 -61 -37 -49 -84 -126 -149 -166 -155 -122 -107 -93 -117 -112 -126 0 0 0 0 0 0 0 0 -148 0 0
-28 -32 -32 -16 -24 -88 -124 -107 -122 -166 -196 -252 -272 -273 -224 -161 -158 -126 -121 -134 0 0 0 0 0 0 0 0 0 0 0 0
-15 -25 -13 -35 -75 -110 -136 -103 -200 -241 -301 -320 -249 -199 -64 -175 -66 -162 -162 -178 0 0 0 0 0 0 0 -95 0 0 0 0
-50 -22 -35 -55 -87 -225 -205 -176 -367 -201 -89 -111 -116 -70 -78 -123 -56 -162 -144 -227 0 0 0 -28 0 0 0 0 0 0 0 0
-21 -29 -60 -154 -174 -196 -100 -130 0 -51 -42 -52 -61 -58 -145 -38 -16 -38 -30 -25 -5 -3 0 0 0 0 0 0 0 0 0 0
-32 -70 -117 -230 -146 -178 -87 -79 -34 -43 -10 -34 -16 -11 -11 -44 -19 -25 -92 -10 0 -3 -13 0 0 0 0 0 0 0 0 0
-80 -109 -109 -142 -143 -106 -89 -44 -54 -35 -23 -26 -42 -30 -31 -23 -24 -19 -30 -5 -10 0 0 0 0 0 0 0 0 0 0 0
-164 0 -104 -59 -58 -59 -34 -34 -103 -83 -69 -56 -73 -48 -60 -38 -36 -28 -22 -23 -27 0 0 0 0 0 0 0 0 0 0 0
-178 -88 -65 -68 -53 -28 -24 -53 -74 -89 -177 -118 -63 -44 -58 -48 -33 -26 -29 -32 0 0 0 0 0 0 0 0 0 0 0 0
-193 -71 -48 -58 -99 -77 -53 -52 -68 -226 -177 -154 -83 -54 -62 -66 -57 0 0 0 0 0 0 0 0 0 0 0 0 0 0 0
-122 -93 -65 -61 -79 -69 0 -6 0 0 0 0 0 0 0 0 0 0 0 0 0 0 0 0 0 0 0 0 0 0 0 0
-110 -82 -52 -31 -32 -35 -33 -33 -44 -58 -5 0 0 0 0 0 0 0 0 0 0 0 0 0 0 0 0 0 0 0 0 0
-100 -85 -66 -57 -36 -20 -24 -69 -61 -46 0 0 0 0 0 0 0 0 0 0 0 0 0 0 0 0 0 0 0 0 0 0
-53 -56 -100 -114 -15 -19 -63 0 0 0 0 0 0 0 0 0 0 0 0 0 0 0 0 0 0 0 0 0 0 0 0 0
-55 -75 -34 -79 -76 -36 0 0 0 0 0 0 0 0 0 0 0 0 0 0 0 0 0 0 0 0 0 0 0 0 0 0
-50 -58 -56 -23 -17 -98 0 0 0 0 0 0 0 0 0 0 0 0 0 0 0 0 0 0 0 0 0 0 0 0 0 0
-24 -31 -96 -27 -17 -53 0 0 0 0 0 0 0 0 -1 0 0 0 0 0 0 0 0 0 0 0 0 0 0 0 0 0
-82 -52 -27 -29 0 0 0 0 0 0 0 0 0 -3 0 0 0 0 0 0 0 0 0 0 0 0 0 -2 -3 0 0 0
-51 -12 -24 -9 0 0 0 0 0 -1 -1 -10 -1 -2 -2 -2 0 0 0 0 0 0 0 0 0 0 0 -5 -9 -17 -9 -3
-7 -68 0 0 0 0 0 0 -1 -12 -8 -2 -1 -1 -1 0 0 0 0 0 0 0 0 0 0 0 -1 -1 -1 -1 -5 -2
Wind_Speed
45 47 47 37 29 21 16 19 20 20 20 22 24 26 29 31 31 29 31 29 nan nan nan nan nan nan nan nan nan nan nan nan
26 38 31 17 15 20 15 17 13 15 nan nan nan nan nan 30 31 31 33 nan nan nan nan nan nan nan nan nan nan nan nan nan
13 15 14 9 5 8 10 6 12 nan nan nan nan nan nan nan nan nan nan nan nan nan nan nan nan nan nan nan nan nan nan nan
4 3 5 6 1 2 nan 4 nan nan nan nan nan 23 nan nan nan nan nan nan nan nan nan nan nan nan nan nan nan nan nan nan
17 13 9 0 3 nan nan nan nan nan 16 18 22 23 nan 28 28 nan nan nan nan nan nan nan nan nan nan nan nan nan nan nan
8 5 6 nan nan nan 6 8 10 14 17 19 21 25 34 27 17 19 nan nan nan nan nan nan nan nan nan nan nan nan nan nan
nan nan nan nan 10 6 10 12 13 17 17 18 18 19 21 25 nan nan nan nan nan nan nan nan nan nan nan nan nan nan nan nan
nan nan nan 7 10 14 12 15 15 17 19 22 22 26 33 32 nan nan nan nan nan nan nan nan nan nan nan nan nan nan nan nan
nan 7 10 15 16 17 13 16 19 21 25 32 32 33 33 33 nan nan nan nan nan nan nan nan nan nan nan nan nan nan nan nan
nan 14 16 14 17 15 17 nan nan nan nan nan nan nan nan nan nan nan nan nan nan nan nan nan nan nan nan nan nan nan nan nan
14 19 18 18 19 nan nan nan nan nan nan nan nan nan nan nan nan nan nan nan nan nan nan nan nan nan nan nan nan nan nan nan
26 23 23 25 nan nan nan nan nan nan nan nan nan nan nan nan nan nan nan nan nan nan nan nan nan nan nan nan nan nan nan nan
28 31 27 nan nan nan nan nan nan nan nan nan nan nan nan nan nan nan nan nan nan nan nan nan nan nan nan nan nan nan nan nan
30 32 33 26 nan nan nan nan nan nan nan nan nan nan nan nan nan nan nan nan nan nan nan nan nan nan nan nan nan nan nan nan
30 31 28 nan 20 nan nan nan nan nan nan nan nan nan nan nan nan nan nan nan nan nan nan nan nan nan nan nan nan nan nan nan
29 26 20 20 19 nan nan nan nan nan nan nan nan nan nan nan nan nan nan nan nan nan nan nan nan nan nan nan nan nan nan nan
17 20 20 22 27 nan nan nan nan nan nan nan nan nan nan nan nan nan nan nan nan nan nan nan nan nan nan nan nan nan nan nan
21 22 23 31 nan nan nan nan nan nan nan nan nan nan nan nan nan nan nan nan nan nan nan nan nan nan nan nan nan nan nan nan
22 27 30 nan nan nan nan nan nan nan nan nan nan nan nan nan nan nan nan nan nan nan nan nan nan nan nan nan nan nan nan nan
32 nan nan nan nan nan nan nan nan nan nan nan nan nan nan nan nan nan nan nan nan nan nan nan nan nan nan nan nan nan nan nan
Wind_Direction
266 258 234 225 236 246 256 254 249 245 247 260 273 281 283 284 286 301 300 302 nan nan nan nan nan nan nan nan nan nan nan nan
253 221 202 205 231 238 231 239 256 268 nan nan nan nan nan 299 303 305 306 nan nan nan nan nan nan nan nan nan nan nan nan nan
245 247 253 243 241 244 236 252 277 nan nan nan nan nan nan nan nan nan nan nan nan nan nan nan nan nan nan nan nan nan nan nan
256 357 44 43 33 206 nan 234 nan nan nan nan nan 303 nan nan nan nan nan nan nan nan nan nan nan nan nan nan nan nan nan nan
50 69 67 111 200 nan nan nan nan nan 306 309 315 313 nan 308 313 nan nan nan nan nan nan nan nan nan nan nan nan nan nan nan
80 64 73 nan nan nan 301 305 308 298 305 296 304 306 308 305 320 330 nan nan nan nan nan nan nan nan nan nan nan nan nan nan
nan nan nan nan 268 283 277 275 283 292 284 305 301 309 314 294 nan nan nan nan nan nan nan nan nan nan nan nan nan nan nan nan
nan nan nan 268 277 277 287 286 298 296 298 298 295 300 302 309 nan nan nan nan nan nan nan nan nan nan nan nan nan nan nan nan
nan 299 274 277 282 290 293 296 299 297 306 305 310 305 306 304 nan nan nan nan nan nan nan nan nan nan nan nan nan nan nan nan
nan 288 285 292 287 292 295 nan nan nan nan nan nan nan nan nan nan nan nan nan nan nan nan nan nan nan nan nan nan nan nan nan
289 292 304 288 286 nan nan nan nan nan nan nan nan nan nan nan nan nan nan nan nan nan nan nan nan nan nan nan nan nan nan nan
308 312 306 298 nan nan nan nan nan nan nan nan nan nan nan nan nan nan nan nan nan nan nan nan nan nan nan nan nan nan nan nan
322 315 311 nan nan nan nan nan nan nan nan nan nan nan nan nan nan nan nan nan nan nan nan nan nan nan nan nan nan nan nan nan
316 311 315 320 nan nan nan nan nan nan nan nan nan nan nan nan nan nan nan nan nan nan nan nan nan nan nan nan nan nan nan nan
316 314 318 nan 334 nan nan nan nan nan nan nan nan nan nan nan nan nan nan nan nan nan nan nan nan nan nan nan nan nan nan nan
318 323 330 334 324 nan nan nan nan nan nan nan nan nan nan nan nan nan nan nan nan nan nan nan nan nan nan nan nan nan nan nan
323 317 323 316 317 nan nan nan nan nan nan nan nan nan nan nan nan nan nan nan nan nan nan nan nan nan nan nan nan nan nan nan
312 316 317 313 nan nan nan nan nan nan nan nan nan nan nan nan nan nan nan nan nan nan nan nan nan nan nan nan nan nan nan nan
311 314 312 nan nan nan nan nan nan nan nan nan nan nan nan nan nan nan nan nan nan nan nan nan nan nan nan nan nan nan nan nan
311 nan nan nan nan nan nan nan nan nan nan nan nan nan nan nan nan nan nan nan nan nan nan nan nan nan nan nan nan nan nan nan